QPF
0.02 0.02 0.01 0.01 0.02 0.01 0.01 0.03 0.07 0.08 0.07 0.07 0.03 0.03 0.03 0.04 0.06 0.08 0.06 0.05 0.06 0.06 0.06 0.06 0.05 0.03 0.03 0.04 0.04 0.05 0.04 0.05 0.06 0.06 0.06 0.05 0.05 0.04 0.03 0.02 0.02 0.02 0.02 0.02
0.03 0.02 0.01 0.01 0.01 0.01 0.01 0.01 0.03 0.06 0.08 0.04 0.02 0.02 0.02 0.02 0.02 0.03 0.02 0.03 0.03 0.04 0.04 0.04 0.06 0.05 0.02 0.02 0.02 0.03 0.04 0.04 0.05 0.06 0.06 0.05 0.04 0.04 0.04 0.03 0.03 0.03 0.03 0.02
0.02 0.02 0.02 0.03 0.01 0.01 0.02 0.02 0.03 0.05 0.06 0.03 0.02 0.03 0.03 0.04 0.03 0.02 0.02 0.02 0.04 0.04 0.04 0.03 0.03 0.03 0.02 0.02 0.02 0.04 0.05 0.05 0.05 0.06 0.06 0.05 0.03 0.04 0.05 0.05 0.04 0.04 0.03 0.03
0.02 0.04 0.06 0.04 0.02 0.02 0.02 0.01 0.01 0.03 0.04 0.03 0.01 0.02 0.02 0.02 0.01 0.01 0.01 0.01 0.01 0.03 0.03 0.03 0.02 0.02 0.02 0.02 0.04 0.07 0.08 0.05 0.04 0.04 0.05 0.04 0.03 0.03 0.04 0.04 0.04 0.03 0.03 0.03
0.03 0.05 0.07 0.07 0.03 0.02 0.03 0.03 0.03 0.04 0.02 0.01 0.01 0.01 0.02 0.01 0.01 0.01 0.00 0.00 0.01 0.01 0.02 0.03 0.03 0.03 0.03 0.03 0.04 0.05 0.05 0.04 0.04 0.04 0.05 0.04 0.02 0.02 0.03 0.04 0.04 0.04 0.03 0.04
0.03 0.05 0.07 0.07 0.03 0.02 0.04 0.07 0.04 0.06 0.03 0.02 0.01 0.04 0.04 0.02 0.01 0.00 0.00 0.00 0.01 0.01 0.01 0.02 0.03 0.04 0.04 0.04 0.04 0.05 0.05 0.04 0.04 0.04 0.06 0.05 0.03 0.02 0.03 0.03 0.04 0.04 0.04 0.04
0.04 0.06 0.07 0.05 0.02 0.02 0.06 0.09 0.03 0.02 0.01 0.01 0.02 0.04 0.03 0.02 0.01 0.00 0.00 0.00 0.00 0.01 0.02 0.03 0.03 0.04 0.04 0.04 0.04 0.03 0.03 0.04 0.05 0.05 0.06 0.06 0.04 0.03 0.03 0.02 0.03 0.05 0.05 0.04
0.05 0.07 0.08 0.03 0.02 0.04 0.07 0.07 0.04 0.02 0.01 0.01 0.02 0.01 0.01 0.02 0.02 0.00 0.00 0.00 0.01 0.02 0.02 0.02 0.02 0.03 0.04 0.03 0.03 0.03 0.04 0.04 0.06 0.08 0.07 0.05 0.05 0.04 0.04 0.03 0.03 0.04 0.05 0.06
0.07 0.07 0.05 0.02 0.02 0.03 0.03 0.04 0.02 0.01 0.01 0.01 0.01 0.01 0.01 0.02 0.01 0.01 0.01 0.02 0.02 0.03 0.03 0.03 0.03 0.05 0.04 0.03 0.02 0.03 0.05 0.08 0.11 0.11 0.10 0.07 0.07 0.06 0.05 0.04 0.04 0.04 0.05 0.05
0.09 0.07 0.04 0.02 0.01 0.02 0.02 0.02 0.01 0.01 0.00 0.00 0.01 0.01 0.02 0.02 0.02 0.02 0.02 0.02 0.03 0.03 0.03 0.03 0.06 0.06 0.06 0.04 0.04 0.05 0.06 0.08 0.10 0.11 0.11 0.09 0.07 0.05 0.04 0.03 0.04 0.04 0.05 0.05
0.07 0.06 0.03 0.02 0.01 0.02 0.02 0.01 0.01 0.01 0.00 0.00 0.01 0.01 0.02 0.02 0.02 0.02 0.02 0.02 0.03 0.03 0.02 0.03 0.03 0.03 0.05 0.06 0.05 0.05 0.06 0.06 0.06 0.06 0.08 0.08 0.06 0.04 0.04 0.04 0.04 0.03 0.03 0.03
0.07 0.06 0.04 0.02 0.01 0.01 0.01 0.02 0.02 0.01 0.01 0.01 0.02 0.02 0.02 0.02 0.02 0.02 0.02 0.02 0.03 0.03 0.03 0.03 0.02 0.02 0.02 0.03 0.04 0.04 0.04 0.04 0.04 0.05 0.06 0.06 0.04 0.04 0.04 0.04 0.03 0.02 0.02 0.03
0.04 0.03 0.02 0.01 0.01 0.01 0.01 0.01 0.02 0.02 0.01 0.01 0.01 0.01 0.02 0.03 0.03 0.02 0.02 0.02 0.03 0.03 0.03 0.03 0.01 0.02 0.04 0.05 0.05 0.03 0.03 0.03 0.03 0.04 0.04 0.05 0.04 0.04 0.03 0.02 0.02 0.01 0.01 0.02
0.02 0.02 0.02 0.01 0.01 0.01 0.01 0.01 0.02 0.03 0.02 0.01 0.01 0.01 0.03 0.04 0.03 0.02 0.02 0.02 0.03 0.03 0.03 0.03 0.02 0.03 0.04 0.05 0.04 0.02 0.02 0.02 0.02 0.02 0.03 0.03 0.04 0.03 0.03 0.02 0.03 0.02 0.02 0.01
0.02 0.03 0.03 0.02 0.01 0.01 0.01 0.01 0.01 0.01 0.02 0.02 0.02 0.03 0.05 0.05 0.03 0.02 0.02 0.03 0.03 0.02 0.03 0.03 0.03 0.04 0.05 0.03 0.03 0.02 0.02 0.02 0.02 0.02 0.02 0.02 0.03 0.03 0.03 0.03 0.03 0.05 0.04 0.02
0.02 0.02 0.03 0.02 0.02 0.01 0.02 0.02 0.01 0.01 0.02 0.03 0.03 0.04 0.05 0.04 0.03 0.03 0.03 0.03 0.03 0.03 0.03 0.02 0.02 0.03 0.04 0.03 0.02 0.02 0.02 0.02 0.02 0.02 0.02 0.03 0.03 0.03 0.03 0.03 0.04 0.04 0.04 0.03
0.02 0.02 0.02 0.03 0.03 0.02 0.01 0.01 0.01 0.02 0.03 0.05 0.04 0.04 0.03 0.03 0.04 0.03 0.03 0.02 0.02 0.02 0.02 0.02 0.01 0.02 0.02 0.03 0.02 0.02 0.02 0.03 0.03 0.03 0.03 0.03 0.03 0.04 0.04 0.04 0.03 0.02 0.02 0.03
0.01 0.01 0.01 0.02 0.02 0.02 0.02 0.02 0.02 0.04 0.05 0.05 0.03 0.03 0.04 0.05 0.05 0.04 0.03 0.02 0.02 0.02 0.02 0.01 0.01 0.01 0.01 0.01 0.02 0.03 0.03 0.04 0.05 0.04 0.04 0.03 0.03 0.02 0.03 0.03 0.04 0.04 0.03 0.03
0.01 0.01 0.01 0.01 0.02 0.02 0.03 0.04 0.05 0.04 0.03 0.03 0.03 0.02 0.04 0.05 0.05 0.04 0.03 0.02 0.01 0.01 0.01 0.01 0.00 0.00 0.00 0.01 0.01 0.02 0.03 0.04 0.06 0.08 0.07 0.05 0.04 0.03 0.02 0.02 0.03 0.04 0.04 0.04
0.00 0.00 0.00 0.01 0.02 0.04 0.05 0.05 0.04 0.03 0.03 0.03 0.03 0.03 0.04 0.06 0.05 0.04 0.04 0.04 0.03 0.01 0.01 0.00 0.01 0.01 0.01 0.01 0.01 0.01 0.01 0.02 0.03 0.05 0.09 0.11 0.09 0.05 0.03 0.03 0.02 0.02 0.03 0.03
0.01 0.00 0.00 0.01 0.02 0.03 0.04 0.03 0.03 0.04 0.04 0.04 0.05 0.05 0.06 0.08 0.06 0.04 0.03 0.03 0.03 0.01 0.01 0.01 0.01 0.01 0.01 0.01 0.02 0.01 0.01 0.01 0.02 0.02 0.03 0.06 0.10 0.10 0.08 0.05 0.04 0.03 0.02 0.02
0.01 0.01 0.01 0.01 0.01 0.01 0.02 0.03 0.04 0.04 0.04 0.04 0.04 0.05 0.08 0.10 0.06 0.04 0.03 0.02 0.02 0.01 0.01 0.01 0.01 0.01 0.01 0.01 0.01 0.01 0.01 0.01 0.01 0.01 0.02 0.02 0.04 0.05 0.07 0.07 0.06 0.04 0.03 0.02
0.02 0.02 0.01 0.01 0.02 0.02 0.02 0.02 0.03 0.04 0.04 0.03 0.03 0.04 0.05 0.05 0.04 0.03 0.03 0.03 0.01 0.01 0.01 0.01 0.01 0.01 0.01 0.01 0.01 0.01 0.01 0.01 0.01 0.02 0.02 0.02 0.02 0.03 0.03 0.03 0.03 0.03 0.04 0.04
0.03 0.03 0.02 0.02 0.02 0.02 0.02 0.03 0.03 0.04 0.04 0.04 0.04 0.04 0.03 0.03 0.03 0.03 0.03 0.03 0.01 0.01 0.01 0.01 0.01 0.01 0.01 0.01 0.02 0.02 0.03 0.02 0.02 0.02 0.03 0.04 0.04 0.03 0.03 0.03 0.02 0.02 0.02 0.03
0.03 0.03 0.03 0.03 0.03 0.02 0.03 0.04 0.04 0.04 0.04 0.04 0.04 0.03 0.02 0.03 0.04 0.03 0.03 0.02 0.02 0.02 0.01 0.01 0.01 0.01 0.01 0.01 0.02 0.03 0.03 0.03 0.02 0.02 0.03 0.03 0.03 0.03 0.02 0.02 0.03 0.03 0.03 0.03
0.04 0.04 0.03 0.03 0.03 0.03 0.05 0.05 0.04 0.03 0.04 0.04 0.04 0.03 0.02 0.03 0.03 0.03 0.02 0.02 0.03 0.03 0.02 0.02 0.03 0.02 0.02 0.02 0.03 0.04 0.04 0.03 0.03 0.03 0.02 0.02 0.02 0.02 0.02 0.02 0.02 0.02 0.03 0.03
0.03 0.03 0.03 0.03 0.03 0.04 0.05 0.05 0.04 0.04 0.04 0.03 0.03 0.03 0.03 0.03 0.02 0.02 0.02 0.02 0.04 0.03 0.03 0.03 0.03 0.03 0.03 0.03 0.03 0.04 0.04 0.05 0.05 0.05 0.04 0.03 0.03 0.02 0.02 0.02 0.02 0.02 0.02 0.02
MSLP
1005.74 1005.94 1006.16 1006.39 1006.62 1006.81 1006.91 1006.87 1006.64 1006.19 1005.55 1004.73 1003.82 1002.90 1002.07 1001.43 1001.05 1000.97 1001.21 1001.73 1002.48 1003.39 1004.36 1005.34 1006.26 1007.09 1007.80 1008.41 1008.93 1009.40 1009.83 1010.26 1010.68 1011.11 1011.54 1011.96 1012.36 1012.73 1013.07 1013.35 1013.59 1013.79 1013.94 1014.04
1005.41 1005.67 1005.91 1006.12 1006.29 1006.39 1006.37 1006.22 1005.90 1005.42 1004.79 1004.04 1003.25 1002.48 1001.82 1001.34 1001.10 1001.12 1001.41 1001.95 1002.68 1003.53 1004.45 1005.35 1006.20 1006.97 1007.64 1008.23 1008.74 1009.21 1009.65 1010.09 1010.53 1010.97 1011.41 1011.85 1012.26 1012.64 1012.98 1013.28 1013.53 1013.73 1013.89 1014.00
1005.05 1005.37 1005.63 1005.83 1005.95 1005.95 1005.83 1005.57 1005.16 1004.62 1003.97 1003.26 1002.55 1001.90 1001.38 1001.04 1000.92 1001.05 1001.40 1001.97 1002.69 1003.51 1004.37 1005.22 1006.02 1006.75 1007.41 1007.98 1008.49 1008.97 1009.43 1009.88 1010.33 1010.78 1011.23 1011.66 1012.08 1012.46 1012.80 1013.09 1013.35 1013.55 1013.72 1013.84
1004.79 1005.14 1005.41 1005.59 1005.65 1005.57 1005.34 1004.97 1004.46 1003.85 1003.17 1002.47 1001.82 1001.26 1000.85 1000.63 1000.63 1000.84 1001.26 1001.85 1002.57 1003.37 1004.20 1005.02 1005.79 1006.49 1007.13 1007.71 1008.23 1008.72 1009.19 1009.65 1010.10 1010.55 1010.99 1011.42 1011.82 1012.18 1012.51 1012.80 1013.04 1013.26 1013.43 1013.57
1004.73 1005.07 1005.33 1005.47 1005.45 1005.28 1004.94 1004.46 1003.85 1003.17 1002.46 1001.76 1001.15 1000.67 1000.36 1000.24 1000.33 1000.63 1001.10 1001.72 1002.45 1003.23 1004.04 1004.83 1005.57 1006.27 1006.90 1007.48 1008.01 1008.51 1008.98 1009.44 1009.89 1010.33 1010.75 1011.14 1011.51 1011.85 1012.15 1012.43 1012.67 1012.88 1013.06 1013.21
1004.93 1005.24 1005.44 1005.50 1005.40 1005.11 1004.67 1004.08 1003.39 1002.65 1001.91 1001.22 1000.66 1000.25 1000.03 1000.00 1000.18 1000.54 1001.06 1001.70 1002.43 1003.20 1003.97 1004.73 1005.46 1006.14 1006.76 1007.34 1007.88 1008.39 1008.86 1009.32 1009.75 1010.16 1010.54 1010.90 1011.23 1011.53 1011.80 1012.05 1012.28 1012.49 1012.69 1012.86
1005.42 1005.65 1005.76 1005.72 1005.50 1005.11 1004.55 1003.87 1003.11 1002.33 1001.58 1000.93 1000.42 1000.09 999.95 1000.01 1000.25 1000.67 1001.21 1001.86 1002.58 1003.32 1004.06 1004.79 1005.49 1006.14 1006.76 1007.34 1007.88 1008.38 1008.86 1009.30 1009.71 1010.09 1010.43 1010.74 1011.02 1011.28 1011.52 1011.74 1011.96 1012.17 1012.38 1012.58
1006.16 1006.29 1006.29 1006.12 1005.78 1005.27 1004.62 1003.87 1003.06 1002.26 1001.54 1000.93 1000.49 1000.23 1000.17 1000.30 1000.60 1001.04 1001.60 1002.23 1002.91 1003.61 1004.30 1004.98 1005.64 1006.26 1006.87 1007.44 1007.97 1008.48 1008.95 1009.38 1009.77 1010.12 1010.42 1010.69 1010.92 1011.14 1011.34 1011.55 1011.76 1011.98 1012.20 1012.43
1007.08 1007.10 1006.97 1006.68 1006.23 1005.61 1004.88 1004.07 1003.25 1002.47 1001.78 1001.23 1000.86 1000.68 1000.69 1000.87 1001.20 1001.65 1002.18 1002.78 1003.39 1004.02 1004.64 1005.26 1005.86 1006.45 1007.03 1007.59 1008.12 1008.63 1009.10 1009.52 1009.90 1010.22 1010.49 1010.72 1010.92 1011.11 1011.29 1011.48 1011.69 1011.91 1012.16 1012.40
1008.09 1008.00 1007.77 1007.36 1006.80 1006.11 1005.32 1004.49 1003.68 1002.93 1002.30 1001.82 1001.52 1001.41 1001.46 1001.67 1002.00 1002.42 1002.90 1003.41 1003.94 1004.48 1005.01 1005.55 1006.08 1006.63 1007.17 1007.71 1008.24 1008.75 1009.22 1009.64 1010.01 1010.32 1010.58 1010.79 1010.97 1011.14 1011.31 1011.50 1011.71 1011.95 1012.21 1012.48
1009.10 1008.93 1008.60 1008.10 1007.47 1006.73 1005.92 1005.10 1004.32 1003.62 1003.06 1002.65 1002.41 1002.34 1002.42 1002.62 1002.92 1003.27 1003.67 1004.08 1004.49 1004.91 1005.34 1005.78 1006.24 1006.72 1007.23 1007.75 1008.26 1008.77 1009.24 1009.67 1010.03 1010.34 1010.60 1010.80 1010.98 1011.15 1011.33 1011.53 1011.76 1012.02 1012.30 1012.59
1010.03 1009.79 1009.39 1008.84 1008.17 1007.41 1006.62 1005.83 1005.10 1004.48 1003.98 1003.63 1003.44 1003.39 1003.47 1003.63 1003.86 1004.13 1004.41 1004.69 1004.98 1005.27 1005.58 1005.92 1006.29 1006.71 1007.16 1007.65 1008.15 1008.64 1009.10 1009.53 1009.90 1010.21 1010.46 1010.68 1010.87 1011.05 1011.25 1011.47 1011.73 1012.02 1012.32 1012.64
1010.80 1010.51 1010.07 1009.50 1008.83 1008.09 1007.34 1006.61 1005.96 1005.40 1004.97 1004.67 1004.51 1004.46 1004.51 1004.61 1004.76 1004.92 1005.08 1005.23 1005.39 1005.56 1005.75 1005.98 1006.27 1006.61 1007.01 1007.44 1007.90 1008.36 1008.81 1009.21 1009.57 1009.88 1010.13 1010.36 1010.56 1010.77 1011.00 1011.25 1011.55 1011.87 1012.21 1012.54
1011.36 1011.05 1010.59 1010.02 1009.38 1008.69 1008.00 1007.35 1006.78 1006.30 1005.93 1005.67 1005.53 1005.46 1005.46 1005.50 1005.55 1005.61 1005.66 1005.69 1005.73 1005.79 1005.88 1006.02 1006.22 1006.48 1006.81 1007.18 1007.58 1007.99 1008.39 1008.75 1009.08 1009.36 1009.61 1009.83 1010.05 1010.28 1010.54 1010.84 1011.17 1011.53 1011.91 1012.27
1011.70 1011.36 1010.90 1010.36 1009.76 1009.14 1008.54 1007.98 1007.49 1007.08 1006.77 1006.54 1006.40 1006.32 1006.27 1006.25 1006.22 1006.19 1006.14 1006.09 1006.04 1006.02 1006.03 1006.09 1006.22 1006.40 1006.65 1006.95 1007.27 1007.60 1007.92 1008.22 1008.49 1008.73 1008.94 1009.15 1009.37 1009.61 1009.90 1010.23 1010.60 1011.00 1011.41 1011.81
1011.81 1011.44 1010.99 1010.48 1009.94 1009.40 1008.89 1008.42 1008.02 1007.68 1007.42 1007.22 1007.08 1006.98 1006.90 1006.82 1006.74 1006.65 1006.55 1006.44 1006.34 1006.27 1006.23 1006.24 1006.31 1006.43 1006.60 1006.81 1007.04 1007.28 1007.50 1007.71 1007.89 1008.06 1008.22 1008.39 1008.59 1008.83 1009.13 1009.48 1009.88 1010.32 1010.77 1011.20
1011.70 1011.32 1010.88 1010.41 1009.93 1009.47 1009.05 1008.67 1008.34 1008.07 1007.85 1007.68 1007.54 1007.43 1007.33 1007.22 1007.11 1006.99 1006.87 1006.75 1006.64 1006.55 1006.50 1006.49 1006.52 1006.59 1006.69 1006.82 1006.95 1007.08 1007.19 1007.29 1007.37 1007.44 1007.53 1007.65 1007.81 1008.03 1008.32 1008.68 1009.10 1009.56 1010.04 1010.49
1011.45 1011.04 1010.61 1010.18 1009.77 1009.39 1009.04 1008.74 1008.48 1008.26 1008.08 1007.93 1007.80 1007.68 1007.56 1007.45 1007.33 1007.21 1007.09 1006.99 1006.90 1006.83 1006.80 1006.79 1006.81 1006.85 1006.90 1006.95 1006.99 1007.02 1007.02 1007.01 1006.99 1006.97 1006.97 1007.02 1007.13 1007.31 1007.58 1007.92 1008.34 1008.80 1009.29 1009.76
1011.12 1010.69 1010.28 1009.89 1009.53 1009.22 1008.94 1008.70 1008.49 1008.31 1008.16 1008.01 1007.88 1007.75 1007.63 1007.51 1007.40 1007.30 1007.21 1007.14 1007.09 1007.06 1007.06 1007.07 1007.10 1007.13 1007.15 1007.16 1007.13 1007.08 1007.00 1006.89 1006.78 1006.67 1006.59 1006.57 1006.62 1006.75 1006.97 1007.28 1007.67 1008.12 1008.60 1009.07
1010.79 1010.36 1009.97 1009.62 1009.32 1009.06 1008.84 1008.64 1008.47 1008.31 1008.16 1008.01 1007.86 1007.72 1007.58 1007.46 1007.35 1007.26 1007.19 1007.15 1007.14 1007.16 1007.20 1007.25 1007.30 1007.34 1007.35 1007.34 1007.28 1007.18 1007.05 1006.88 1006.71 1006.54 1006.40 1006.32 1006.31 1006.38 1006.55 1006.81 1007.15 1007.55 1008.00 1008.46
1010.55 1010.14 1009.78 1009.47 1009.21 1009.00 1008.82 1008.65 1008.49 1008.33 1008.17 1007.99 1007.82 1007.64 1007.48 1007.33 1007.20 1007.11 1007.05 1007.03 1007.04 1007.09 1007.16 1007.24 1007.32 1007.38 1007.41 1007.40 1007.35 1007.25 1007.10 1006.92 1006.73 1006.53 1006.37 1006.24 1006.18 1006.20 1006.31 1006.50 1006.77 1007.11 1007.50 1007.92
1010.45 1010.07 1009.75 1009.49 1009.28 1009.10 1008.94 1008.79 1008.63 1008.45 1008.26 1008.04 1007.82 1007.59 1007.37 1007.18 1007.01 1006.88 1006.80 1006.77 1006.78 1006.83 1006.91 1007.01 1007.11 1007.20 1007.26 1007.28 1007.26 1007.19 1007.08 1006.93 1006.76 1006.58 1006.41 1006.28 1006.19 1006.16 1006.21 1006.33 1006.52 1006.78 1007.10 1007.46
1010.51 1010.19 1009.92 1009.70 1009.53 1009.38 1009.24 1009.08 1008.90 1008.70 1008.46 1008.19 1007.91 1007.61 1007.33 1007.06 1006.82 1006.64 1006.50 1006.42 1006.40 1006.42 1006.49 1006.58 1006.69 1006.79 1006.89 1006.95 1006.98 1006.98 1006.93 1006.85 1006.73 1006.60 1006.47 1006.35 1006.25 1006.19 1006.19 1006.24 1006.35 1006.53 1006.76 1007.03
1010.74 1010.47 1010.26 1010.09 1009.95 1009.82 1009.68 1009.51 1009.31 1009.07 1008.78 1008.46 1008.10 1007.73 1007.37 1007.02 1006.70 1006.43 1006.21 1006.05 1005.96 1005.93 1005.94 1006.00 1006.09 1006.20 1006.32 1006.42 1006.52 1006.58 1006.61 1006.62 1006.59 1006.53 1006.46 1006.37 1006.29 1006.22 1006.18 1006.17 1006.21 1006.29 1006.43 1006.63
1011.09 1010.88 1010.72 1010.58 1010.47 1010.35 1010.22 1010.04 1009.81 1009.53 1009.20 1008.82 1008.41 1007.97 1007.52 1007.09 1006.68 1006.32 1006.01 1005.75 1005.56 1005.44 1005.38 1005.38 1005.43 1005.51 1005.63 1005.76 1005.90 1006.02 1006.14 1006.23 1006.29 1006.31 1006.31 1006.28 1006.23 1006.17 1006.10 1006.05 1006.03 1006.04 1006.10 1006.22
1011.49 1011.34 1011.22 1011.13 1011.03 1010.92 1010.77 1010.58 1010.34 1010.03 1009.67 1009.25 1008.79 1008.30 1007.79 1007.29 1006.80 1006.35 1005.94 1005.58 1005.29 1005.06 1004.91 1004.82 1004.79 1004.82 1004.90 1005.03 1005.18 1005.35 1005.52 1005.68 1005.82 1005.93 1006.00 1006.03 1006.02 1005.98 1005.92 1005.84 1005.78 1005.74 1005.75 1005.81
1011.92 1011.81 1011.72 1011.64 1011.56 1011.45 1011.29 1011.09 1010.84 1010.52 1010.14 1009.70 1009.22 1008.70 1008.17 1007.62 1007.08 1006.55 1006.06 1005.61 1005.21 1004.87 1004.60 1004.40 1004.27 1004.22 1004.23 1004.31 1004.44 1004.61 1004.80 1005.00 1005.19 1005.36 1005.49 1005.58 1005.62 1005.62 1005.58 1005.52 1005.45 1005.39 1005.37 1005.41
Thickness
5732 5740 5743 5741 5739 5742 5738 5737 5726 5726 5724 5726 5734 5734 5735 5735 5735 5731 5728 5726 5724 5722 5722 5719 5716 5715 5717 5716 5715 5714 5711 5708 5705 5704 5702 5700 5698 5697 5695 5694 5693 5691 5690 5688
5719 5732 5736 5736 5741 5742 5740 5736 5731 5728 5721 5731 5734 5732 5730 5729 5728 5724 5722 5722 5721 5719 5718 5715 5712 5712 5713 5713 5712 5710 5707 5705 5703 5701 5698 5696 5694 5693 5691 5689 5688 5686 5685 5683
5706 5723 5725 5716 5731 5735 5734 5736 5730 5719 5719 5726 5722 5720 5721 5720 5720 5720 5718 5717 5716 5715 5713 5712 5711 5709 5709 5708 5707 5705 5702 5700 5699 5696 5694 5692 5691 5688 5686 5684 5682 5681 5680 5678
5701 5705 5689 5714 5738 5736 5726 5724 5726 5719 5716 5716 5716 5719 5720 5718 5715 5714 5713 5712 5711 5710 5709 5709 5708 5707 5706 5705 5702 5699 5696 5695 5694 5692 5689 5687 5685 5683 5681 5679 5677 5676 5675 5674
5692 5689 5693 5709 5722 5723 5715 5707 5714 5712 5711 5712 5715 5714 5710 5712 5712 5710 5710 5709 5707 5707 5705 5705 5704 5702 5700 5699 5697 5694 5692 5690 5690 5688 5685 5683 5681 5679 5677 5675 5672 5671 5670 5669
5686 5678 5676 5690 5714 5722 5712 5691 5703 5704 5703 5704 5704 5694 5694 5703 5705 5705 5704 5703 5702 5701 5700 5698 5698 5697 5694 5692 5691 5689 5688 5687 5687 5686 5683 5680 5677 5675 5673 5671 5669 5667 5666 5664
5678 5674 5678 5692 5708 5711 5684 5678 5693 5697 5696 5696 5693 5692 5694 5697 5698 5698 5697 5698 5697 5695 5692 5691 5692 5691 5688 5687 5685 5686 5686 5685 5683 5681 5679 5677 5674 5671 5669 5667 5665 5663 5661 5659
5672 5664 5662 5686 5692 5681 5675 5685 5686 5686 5688 5688 5689 5691 5690 5690 5689 5690 5690 5691 5690 5688 5686 5686 5686 5684 5681 5680 5682 5682 5682 5680 5678 5676 5675 5674 5670 5667 5665 5662 5660 5658 5656 5655
5663 5658 5665 5677 5678 5679 5679 5676 5678 5679 5682 5683 5682 5681 5681 5680 5681 5682 5682 5683 5683 5681 5680 5680 5680 5679 5676 5676 5677 5676 5675 5673 5672 5671 5670 5669 5666 5662 5660 5658 5655 5654 5652 5650
5655 5655 5661 5666 5670 5672 5673 5672 5675 5676 5677 5677 5675 5674 5672 5671 5672 5673 5674 5675 5675 5674 5672 5672 5673 5673 5671 5672 5671 5670 5668 5667 5667 5666 5665 5663 5661 5659 5657 5654 5652 5651 5649 5646
5644 5647 5653 5655 5659 5662 5664 5666 5667 5668 5669 5669 5667 5666 5665 5663 5664 5665 5666 5667 5667 5666 5665 5665 5667 5666 5666 5665 5664 5663 5662 5661 5661 5661 5661 5658 5656 5654 5653 5651 5649 5646 5645 5643
5634 5639 5640 5643 5651 5655 5655 5655 5657 5658 5659 5660 5659 5658 5658 5656 5657 5657 5657 5659 5659 5660 5660 5660 5660 5660 5660 5660 5659 5657 5655 5655 5656 5656 5656 5654 5651 5649 5646 5645 5643 5641 5639 5636
5632 5636 5638 5640 5644 5647 5648 5649 5650 5650 5651 5651 5651 5651 5650 5649 5649 5650 5651 5652 5652 5653 5654 5654 5654 5654 5654 5654 5653 5651 5650 5650 5650 5650 5650 5648 5646 5644 5641 5637 5635 5633 5631 5629
5627 5629 5628 5631 5633 5638 5640 5642 5643 5642 5645 5645 5645 5645 5644 5643 5643 5643 5643 5645 5647 5648 5648 5648 5648 5648 5648 5648 5646 5645 5645 5645 5645 5644 5644 5643 5642 5641 5639 5636 5632 5629 5625 5622
5619 5621 5621 5624 5627 5629 5632 5633 5633 5634 5635 5636 5637 5637 5637 5635 5635 5636 5638 5639 5641 5641 5641 5641 5641 5641 5642 5641 5639 5639 5639 5639 5639 5639 5639 5638 5638 5636 5635 5633 5630 5626 5622 5617
5613 5615 5616 5617 5618 5620 5622 5623 5623 5624 5626 5627 5628 5629 5630 5630 5631 5631 5632 5633 5633 5633 5633 5634 5634 5634 5634 5634 5632 5632 5632 5632 5631 5632 5633 5632 5631 5630 5629 5627 5624 5621 5618 5614
5601 5603 5606 5608 5610 5612 5614 5615 5617 5618 5619 5619 5620 5622 5623 5623 5623 5624 5626 5627 5627 5627 5628 5628 5628 5628 5628 5627 5626 5626 5626 5627 5625 5626 5626 5626 5624 5623 5622 5620 5618 5616 5614 5611
5599 5600 5602 5603 5604 5605 5607 5609 5610 5610 5611 5613 5614 5615 5615 5615 5615 5617 5620 5621 5621 5621 5622 5622 5622 5622 5622 5621 5620 5621 5622 5622 5622 5621 5620 5619 5618 5617 5616 5614 5613 5610 5608 5605
5594 5595 5596 5597 5599 5599 5599 5599 5601 5602 5604 5606 5607 5607 5608 5608 5610 5611 5613 5613 5613 5613 5613 5615 5614 5615 5616 5616 5614 5616 5617 5617 5616 5616 5615 5613 5613 5612 5610 5608 5607 5604 5603 5600
5587 5589 5590 5591 5592 5592 5591 5592 5593 5594 5597 5599 5600 5600 5600 5601 5603 5604 5605 5605 5605 5606 5607 5607 5608 5609 5610 5610 5607 5611 5613 5613 5612 5611 5610 5609 5607 5605 5604 5602 5601 5599 5597 5595
5580 5582 5583 5583 5583 5584 5584 5585 5585 5587 5589 5591 5590 5591 5592 5594 5596 5597 5597 5597 5597 5598 5600 5600 5601 5601 5602 5601 5601 5606 5608 5608 5607 5606 5605 5604 5602 5600 5598 5597 5596 5594 5591 5589
5572 5574 5575 5576 5576 5576 5576 5578 5579 5581 5582 5583 5584 5585 5586 5587 5589 5590 5590 5590 5591 5589 5593 5594 5594 5592 5593 5594 5599 5602 5603 5603 5602 5602 5601 5600 5598 5596 5594 5593 5591 5589 5587 5585
5566 5567 5568 5569 5569 5569 5570 5571 5572 5574 5576 5577 5578 5578 5579 5581 5583 5583 5582 5584 5586 5583 5585 5587 5585 5585 5585 5590 5595 5596 5597 5598 5598 5598 5597 5596 5595 5593 5591 5589 5587 5585 5583 5580
5560 5561 5561 5563 5563 5563 5563 5564 5566 5568 5570 5572 5573 5574 5575 5576 5577 5579 5578 5577 5577 5577 5580 5580 5580 5580 5580 5586 5589 5590 5592 5592 5593 5593 5593 5592 5591 5589 5587 5585 5582 5581 5579 5577
5555 5555 5556 5556 5556 5558 5559 5560 5561 5563 5564 5566 5567 5569 5570 5571 5571 5572 5573 5573 5572 5573 5575 5577 5576 5576 5578 5581 5583 5585 5586 5586 5586 5586 5586 5585 5584 5583 5581 5580 5578 5576 5574 5571
5550 5550 5551 5551 5552 5553 5554 5556 5557 5558 5559 5560 5561 5563 5564 5565 5566 5567 5567 5568 5569 5568 5571 5573 5574 5573 5576 5577 5578 5579 5579 5580 5581 5580 5579 5578 5577 5575 5574 5573 5571 5569 5567 5565
5547 5547 5546 5548 5549 5549 5550 5550 5551 5552 5553 5553 5554 5555 5557 5558 5559 5560 5561 5562 5564 5565 5567 5568 5570 5570 5571 5572 5572 5572 5572 5572 5572 5571 5571 5570 5568 5567 5566 5565 5563 5562 5560 5558